Simultaneous Nadir Overpasses (SNOs) Predictions

Prediction of SNOs between GOES-17 and METOP-A Satellite Orbit:

Table of predicted SNOs for the next 14.0 days since TLE Epoch: 11/9/2019
Index Date Time (GOES-17) GOES-17 Lat,Lon METOP-A Lat,Lon Distance(km) Time Diff (sec)
1 11/09/2019 06:20:56 0.00,-137.21 -0.79,-140.68 395.41 80
2 11/10/2019 05:57:37 0.00,-137.21 0.35,-135.70 172.05 80
3 11/11/2019 18:16:30 -0.00,-137.21 0.67,-140.29 350.63 80
4 11/12/2019 17:58:30 -0.00,-137.21 -0.41,-135.31 216.40 80
5 11/14/2019 06:17:32 0.01,-137.19 -0.61,-139.94 312.48 80
6 11/15/2019 05:54:12 0.01,-137.18 0.47,-134.95 253.92 80
7 11/16/2019 18:13:04 -0.01,-137.17 0.54,-139.54 270.55 80
8 11/17/2019 17:55:06 -0.01,-137.15 -0.60,-134.57 295.42 80
9 11/19/2019 06:14:06 0.00,-137.12 -0.47,-139.18 234.91 80
10 11/20/2019 05:50:48 0.00,-137.11 0.67,-134.21 330.68 80
11 11/21/2019 18:09:39 -0.00,-137.08 0.40,-138.79 194.88 80
12 11/22/2019 17:51:41 -0.00,-137.06 -0.74,-133.81 370.52 80




NCC Satellite Simultaneous Nadir Overpasses (SNOs) Prediction Service
